Location: Palomar Mountain Lodge
(33.3110°N, 116.8495°W)
Time: 19:24:45
(UTC-07:00)

SeaSat 1 - Pass Details

Date: 19 May 2017
Orbit: 746 x 747 km, 108.0° (Epoch: 19 August)

Event Time Altitude Azimuth Distance (km) Brightness Sun altitude
Exits shadow 23:38:55 29° 13° (NNE) 1,343 4.1 -34.4°
Drops below altitude 10° 23:41:38 10° 351° (N) 2,261 5.7 -34.6°
Sets 23:44:00 0° 345° (NNW) 3,188 6.7 -34.8°
